GW6961 Weather Reports


time (UTC)temp
C
wind
direction
speed
KPH
gust
KPH
rain 1hr
cm
rain 24hr
cm
rain mn
cm
humidity
%
barometer
mb
20260507190022 23 174 3.2 3.2 0.00 0.00 0.08 85
20260507185805 23 207 0.0 3.2 0.00 0.00 0.08 85
20260507185721 23 248 1.6 4.8 0.00 0.00 0.08 85
20260507185640 23 217 1.6 4.8 0.00 0.00 0.08 85
20260507185513 23 156 1.6 1.6 0.00 0.00 0.08 86
20260507185416 23 146 1.6 1.6 0.00 0.00 0.08 85
20260507185234 23 9 0.0 1.6 0.00 0.00 0.08 87
20260507185111 23 9 0.0 1.6 0.00 0.00 0.08 87
20260507184816 23 25 0.0 1.6 0.00 0.00 0.05 86
20260507184510 23 305 3.2 3.2 0.00 0.00 0.03 83
20260507184459 23 295 1.6 3.2 0.00 0.00 0.03 83
20260507184212 24 198 3.2 4.8 0.00 0.00 0.03 81
20260507183909 24 278 9.7 12.9 0.00 0.00 0.00 79
20260507183615 25 297 3.2 11.3 0.00 0.00 0.00 78
20260507183444 25 256 9.7 12.9 0.00 0.00 0.00 78
20260507183420 25 249 3.2 9.7 0.00 0.00 0.00 79
20260507183310 25 279 9.7 11.3 0.00 0.00 0.00 78
20260507183008 25 255 3.2 4.8 0.00 0.00 0.00 78
20260507182720 25 125 1.6 4.8 0.00 0.00 0.00 78
20260507182416 25 114 4.8 9.7 0.00 0.00 0.00 77
20260507182133 26 207 1.6 4.8 0.00 0.00 0.00 76
20260507181815 26 255 6.4 12.9 0.00 0.00 0.00 72
20260507181519 26 183 9.7 12.9 0.00 0.00 0.00 73
20260507181216 27 260 6.4 12.9 0.00 0.00 0.00 72
20260507180914 27 277 3.2 6.4 0.00 0.00 0.00 70
20260507180610 27 258 6.4 16.1 0.00 0.00 0.00 70
20260507180315 27 120 3.2 6.4 0.00 0.00 0.00 71
20260507180016 27 182 9.7 11.3 0.00 0.00 0.00 72
20260507175712 27 210 3.2 14.5 0.00 0.00 0.00 72
20260507175415 27 267 8.0 11.3 0.00 0.00 0.00 70
20260507175114 27 160 4.8 9.7 0.00 0.00 0.00 70
20260507174813 27 261 8.0 14.5 0.00 0.00 0.00 69
20260507174516 27 259 9.7 12.9 0.00 0.00 0.00 69
20260507174219 27 281 1.6 12.9 0.00 0.00 0.00 72
20260507173909 27 250 6.4 12.9 0.00 0.00 0.00 70
20260507173612 27 225 11.3 16.1 0.00 0.00 0.00 71
20260507173325 27 174 6.4 12.9 0.00 0.00 0.00 71
20260507173017 28 204 12.9 17.7 0.00 0.00 0.00 71
20260507172715 27 30 3.2 9.7 0.00 0.00 0.00 75
20260507172412 27 135 6.4 14.5 0.00 0.00 0.00 70
20260507172125 27 196 6.4 6.4 0.00 0.00 0.00 70
20260507171818 26 207 3.2 6.4 0.00 0.00 0.00 74
20260507171519 26 200 9.7 12.9 0.00 0.00 0.00 72
20260507171217 26 241 6.4 11.3 0.00 0.00 0.00 71
20260507170917 26 251 3.2 11.3 0.00 0.00 0.00 73
20260507170609 27 238 8.0 16.1 0.00 0.00 0.00 72
20260507170315 27 270 3.2 9.7 0.00 0.00 0.00 72
20260507170018 27 224 6.4 6.4 0.00 0.00 0.00 72
20260507165713 27 266 6.4 9.7 0.00 0.00 0.00 69
20260507165410 27 247 1.6 6.4 0.00 0.00 0.00 71
20260507165121 27 224 1.6 9.7 0.00 0.00 0.00 71
20260507164519 26 269 1.6 11.3 0.00 0.00 0.00 74
20260507164213 26 280 4.8 6.4 0.00 0.00 0.00 70
20260507163914 26 316 3.2 12.9 0.00 0.00 0.00 73
20260507163617 25 239 8.0 9.7 0.00 0.00 0.00 74
20260507163321 25 236 3.2 4.8 0.00 0.00 0.00 75
20260507163009 26 214 3.2 6.4 0.00 0.00 0.00 75
20260507162720 26 175 4.8 11.3 0.00 0.00 0.00 74
20260507162411 27 245 6.4 12.9 0.00 0.00 0.00 71
20260507162125 26 263 6.4 9.7 0.00 0.00 0.00 72
20260507161810 26 163 4.8 11.3 0.00 0.00 0.00 74
20260507161511 26 187 0.0 6.4 0.00 0.00 0.00 75
20260507161212 26 212 4.8 6.4 0.00 0.00 0.00 73
20260507160911 27 151 6.4 9.7 0.00 0.00 0.00 71
20260507160617 27 125 6.4 11.3 0.00 0.00 0.00 68
20260507160313 27 39 3.2 4.8 0.00 0.00 0.00 70
20260507160020 26 215 3.2 3.2 0.00 0.00 0.00 71
20260507160008 27 224 1.6 9.7 0.00 0.00 0.00 71
20260507155417 27 198 6.4 11.3 0.00 0.00 0.00 70
20260507155120 26 55 1.6 4.8 0.00 0.00 0.00 72
20260507154812 26 190 3.2 6.4 0.00 0.00 0.00 72
20260507154517 27 96 1.6 4.8 0.00 0.00 0.00 71
20260507154218 26 252 3.2 3.2 0.00 0.00 0.00 72
20260507153911 26 112 6.4 6.4 0.00 0.00 0.00 70
20260507153615 27 281 1.6 6.4 0.00 0.00 0.00 69
20260507153320 26 178 4.8 6.4 0.00 0.00 0.00 71
20260507153014 27 108 3.2 3.2 0.00 0.00 0.00 71
20260507152720 26 64 3.2 3.2 0.00 0.00 0.00 71
20260507152412 26 32 3.2 4.8 0.00 0.00 0.00 73
20260507152116 27 189 1.6 4.8 0.00 0.00 0.00 71
20260507151813 27 148 3.2 9.7 0.00 0.00 0.00 69
20260507151512 27 105 3.2 4.8 0.00 0.00 0.00 70
20260507151216 27 113 1.6 6.4 0.00 0.00 0.00 68
20260507150920 26 198 0.0 4.8 0.00 0.00 0.00 67
20260507150610 26 319 4.8 6.4 0.00 0.00 0.00 68
20260507150320 26 202 4.8 6.4 0.00 0.00 0.00 69
20260507150014 26 24 1.6 3.2 0.00 0.00 0.00 72
20260507150003 27 155 3.2 6.4 0.00 0.00 0.00 69
20260507145413 26 275 3.2 4.8 0.00 0.00 0.00 70
20260507145118 26 215 1.6 4.8 0.00 0.00 0.00 70
20260507144812 25 191 1.6 3.2 0.00 0.00 0.00 69
20260507144516 26 274 4.8 9.7 0.00 0.00 0.00 69
20260507144218 26 344 3.2 6.4 0.00 0.00 0.00 70
20260507143912 26 320 6.4 12.9 0.00 0.00 0.00 70
20260507143616 26 54 6.4 6.4 0.00 0.00 0.00 67
20260507143320 26 328 4.8 16.1 0.00 0.00 0.00 70
20260507143011 26 42 3.2 4.8 0.00 0.00 0.00 70
20260507142718 26 317 6.4 9.7 0.00 0.00 0.00 69
20260507142411 26 1 8.0 9.7 0.00 0.00 0.00 70
20260507142115 25 107 3.2 6.4 0.00 0.00 0.00 70
20260507141813 26 355 6.4 9.7 0.00 0.00 0.00 69
20260507141518 26 300 3.2 14.5 0.00 0.00 0.00 69
20260507141221 26 72 6.4 9.7 0.00 0.00 0.00 69
20260507140921 26 62 3.2 4.8 0.00 0.00 0.00 69
20260507140618 26 244 3.2 6.4 0.00 0.00 0.00 70
20260507140321 25 41 4.8 6.4 0.00 0.00 0.00 73
20260507140013 25 277 3.2 14.5 0.00 0.00 0.00 72
20260507140002 25 275 4.8 6.4 0.00 0.00 0.00 71
20260507135414 25 21 6.4 9.7 0.00 0.00 0.00 73
20260507135118 25 154 0.0 3.2 0.00 0.00 0.00 74
20260507134812 26 326 3.2 6.4 0.00 0.00 0.00 70
20260507134517 25 311 1.6 4.8 0.00 0.00 0.00 72
20260507134220 26 255 1.6 4.8 0.00 0.00 0.00 69
20260507133918 25 264 3.2 4.8 0.00 0.00 0.00 72
20260507133618 25 30 9.7 12.9 0.00 0.00 0.00 73
20260507133313 26 49 4.8 6.4 0.00 0.00 0.00 72
20260507133018 25 123 0.0 4.8 0.00 0.00 0.00 73
20260507132721 25 265 3.2 4.8 0.00 0.00 0.00 73
20260507132416 24 285 1.6 3.2 0.00 0.00 0.00 74
20260507132120 25 311 3.2 4.8 0.00 0.00 0.00 74
20260507131814 25 298 3.2 6.4 0.00 0.00 0.00 73
20260507131519 25 87 3.2 4.8 0.00 0.00 0.00 72
20260507131213 24 29 0.0 1.6 0.00 0.00 0.00 76
20260507130917 25 130 3.2 4.8 0.00 0.00 0.00 74
20260507130621 25 35 0.0 3.2 0.00 0.00 0.00 75
20260507130315 25 49 3.2 6.4 0.00 0.00 0.00 76
20260507130019 24 9 1.6 9.7 0.00 0.00 0.00 78
20260507130008 25 67 3.2 6.4 0.00 0.00 0.00 76
20260507125409 24 68 3.2 4.8 0.00 0.00 0.00 76
20260507125118 24 271 4.8 4.8 0.00 0.00 0.00 76
20260507124820 24 336 1.6 4.8 0.00 0.00 0.00 81
20260507124514 24 95 4.8 6.4 0.00 0.00 0.00 77
20260507124218 24 44 3.2 3.2 0.00 0.00 0.00 77
20260507123910 23 58 1.6 3.2 0.00 0.00 0.00 77
20260507123614 23 50 0.0 1.6 0.00 0.00 0.00 82
20260507123315 23 34 3.2 4.8 0.00 0.00 0.00 81
20260507123021 23 30 0.0 1.6 0.00 0.00 0.00 81
20260507122714 23 55 0.0 1.6 0.00 0.00 0.00 83
20260507122418 23 0 0.0 0.0 0.00 0.00 0.00 85
20260507122113 23 52 4.8 6.4 0.00 0.00 0.00 82
20260507121818 23 56 3.2 3.2 0.00 0.00 0.00 85
20260507121511 23 40 6.4 6.4 0.00 0.00 0.00 84
20260507121215 23 51 3.2 4.8 0.00 0.00 0.00 84
20260507120917 22 116 1.6 3.2 0.00 0.00 0.00 85
20260507120611 22 340 1.6 3.2 0.00 0.00 0.00 88
20260507120316 22 38 4.8 11.3 0.00 0.00 0.00 87
20260507120016 22 68 1.6 3.2 0.00 0.00 0.00 87
20260507120005 22 73 0.0 1.6 0.00 0.00 0.00 88
20260507115410 22 20 3.2 6.4 0.00 0.00 0.00 88
20260507115114 22 218 0.0 4.8 0.00 0.00 0.00 90
20260507114819 22 58 3.2 3.2 0.00 0.00 0.00 90
20260507114512 21 51 4.8 4.8 0.00 0.00 0.00 89
20260507114217 21 39 1.6 1.6 0.00 0.00 0.00 89
20260507113910 21 106 0.0 1.6 0.00 0.00 0.00 90
20260507113614 21 127 0.0 0.0 0.00 0.00 0.00 90
20260507113319 21 101 1.6 3.2 0.00 0.00 0.00 90
20260507113011 21 116 0.0 1.6 0.00 0.00 0.00 91
20260507112717 21 235 1.6 1.6 0.00 0.00 0.00 91
20260507112411 21 109 0.0 3.2 0.00 0.00 0.00 91
20260507112116 21 153 1.6 3.2 0.00 0.00 0.00 92
20260507111820 21 175 1.6 3.2 0.00 0.00 0.00 92
20260507111514 21 94 0.0 0.0 0.00 0.00 0.00 92
20260507111218 21 94 0.0 0.0 0.00 0.00 0.00 93
20260507110912 21 95 0.0 0.0 0.00 0.00 0.00 93
20260507110617 21 94 0.0 0.0 0.00 0.00 0.00 93
20260507110319 20 94 0.0 0.0 0.00 0.00 0.00 93
20260507110014 20 94 0.0 0.0 0.00 0.00 0.00 93
20260507110002 20 93 0.0 0.0 0.00 0.00 0.00 93
20260507105413 20 93 0.0 0.0 0.00 0.00 0.00 94
20260507105118 20 224 0.0 0.0 0.00 0.00 0.00 94
20260507104811 20 225 0.0 0.0 0.00 0.00 0.00 94
20260507104516 20 224 0.0 0.0 0.00 0.00 0.00 94
20260507104218 20 101 0.0 0.0 0.00 0.00 0.00 94
20260507103920 20 101 0.0 0.0 0.00 0.00 0.00 94
20260507103618 20 100 0.0 0.0 0.00 0.00 0.00 94
20260507103402 20 128 0.0 1.6 0.00 0.00 0.00 94
20260507103012 20 95 0.0 1.6 0.00 0.00 0.00 93
20260507102721 20 193 0.0 1.6 0.00 0.00 0.00 93
20260507102420 20 107 0.0 0.0 0.00 0.00 0.00 92
20260507102113 20 127 0.0 0.0 0.00 0.00 0.00 92
20260507101817 20 247 0.0 0.0 0.00 0.00 0.00 91
20260507101511 20 194 0.0 0.0 0.00 0.00 0.00 91
20260507101216 20 194 0.0 0.0 0.00 0.00 0.00 90
20260507100911 21 31 0.0 1.6 0.00 0.00 0.00 89
20260507100613 21 344 0.0 1.6 0.00 0.00 0.00 88
20260507100318 21 192 0.0 6.4 0.00 0.00 0.00 88
20260507100011 21 61 1.6 3.2 0.00 0.00 0.00 88
20260507095417 21 236 6.4 11.3 0.00 0.00 0.00 90
20260507095110 21 149 0.0 6.4 0.00 0.00 0.00 91
20260507094813 21 179 6.4 22.5 0.00 0.00 0.00 91
20260507094517 21 289 0.0 3.2 0.00 0.00 0.00 92
20260507094211 20 254 1.6 6.4 0.00 0.00 0.00 94
20260507093916 20 168 1.6 4.8 0.00 0.00 0.00 96
20260507093610 20 249 3.2 6.4 0.00 0.00 0.00 96
20260507093314 20 256 3.2 3.2 0.00 0.00 0.00 96
20260507093017 19 213 0.0 1.6 0.00 0.00 0.00 96
20260507092715 20 117 0.0 3.2 0.00 0.00 0.00 96
20260507092417 20 115 0.0 3.2 0.00 0.00 0.00 96
20260507092121 19 186 4.8 6.4 0.00 0.00 0.00 97
20260507091814 19 176 0.0 0.0 0.00 0.00 0.00 96
20260507091517 19 162 0.0 0.0 0.00 0.00 0.00 96
20260507091211 19 163 0.0 0.0 0.00 0.00 0.00 96
20260507090915 19 201 0.0 1.6 0.00 0.00 0.00 96
20260507090618 18 195 1.6 3.2 0.00 0.00 0.00 96
20260507090310 18 197 0.0 0.0 0.00 0.00 0.00 96
20260507090014 18 196 0.0 1.6 0.00 0.00 0.00 96
20260507090004 18 199 0.0 1.6 0.00 0.00 0.00 96
20260507085415 18 241 0.0 0.0 0.00 0.00 0.00 95
20260507085120 18 199 0.0 0.0 0.00 0.00 0.00 96
20260507084809 19 199 0.0 0.0 0.00 0.00 0.00 95
20260507084518 19 199 0.0 0.0 0.00 0.00 0.00 95
20260507084220 19 200 0.0 0.0 0.00 0.00 0.00 95
20260507083914 19 185 0.0 0.0 0.00 0.00 0.00 95
20260507083619 19 165 1.6 1.6 0.00 0.00 0.00 95
20260507083313 19 94 0.0 1.6 0.00 0.00 0.00 95
20260507083015 19 225 0.0 0.0 0.00 0.00 0.00 95
20260507082718 19 224 0.0 0.0 0.00 0.00 0.00 95
20260507082411 19 224 0.0 1.6 0.00 0.00 0.00 94
20260507082121 19 224 0.0 0.0 0.00 0.00 0.00 94
20260507081833 19 225 0.0 0.0 0.00 0.00 0.00 94
20260507081515 19 225 0.0 0.0 0.00 0.00 0.00 93
20260507081214 20 256 1.6 1.6 0.00 0.00 0.00 93
20260507080913 20 220 0.0 1.6 0.00 0.00 0.00 93
20260507080618 20 81 0.0 0.0 0.00 0.00 0.00 93
20260507080313 20 99 0.0 1.6 0.00 0.00 0.00 93
20260507080015 20 308 3.2 4.8 0.00 0.00 0.00 94
20260507080005 20 225 0.0 0.0 0.00 0.00 0.00 93
20260507075411 20 225 0.0 0.0 0.00 0.00 0.00 92
20260507075116 20 212 0.0 0.0 0.00 0.00 0.00 92
20260507074809 20 212 0.0 0.0 0.00 0.00 0.00 92
20260507074514 20 177 0.0 3.2 0.00 0.00 0.00 92
20260507074219 20 201 1.6 1.6 0.00 0.00 0.00 92
20260507073912 20 253 3.2 9.7 0.00 0.00 0.00 93
20260507073615 20 217 1.6 1.6 0.00 0.00 0.00 93
20260507073320 20 255 3.2 9.7 0.00 0.00 0.00 95
20260507073013 20 139 1.6 3.2 0.00 0.00 0.00 96
20260507072718 19 174 0.0 0.0 0.00 0.00 0.00 94
20260507072412 19 245 0.0 1.6 0.00 0.00 0.00 94
20260507072118 19 155 0.0 3.2 0.00 0.00 0.00 94
20260507071813 20 268 0.0 1.6 0.00 0.00 0.00 95
20260507071519 20 72 0.0 1.6 0.00 0.00 0.00 95
20260507071212 20 94 1.6 3.2 0.00 0.00 0.00 96
20260507070911 19 262 3.2 9.7 0.00 0.00 0.00 97
20260507070616 19 82 0.0 4.8 0.00 0.00 0.00 96
20260507070318 19 86 0.0 3.2 0.00 0.00 0.00 96
20260507070013 18 167 0.0 0.0 0.00 0.00 0.00 96
20260507070001 18 125 0.0 1.6 0.00 0.00 0.00 96
20260507065416 18 86 0.0 1.6 0.00 0.00 0.00 96
20260507065116 18 162 0.0 1.6 0.00 0.00 0.00 96
20260507064810 18 209 1.6 1.6 0.00 0.00 0.00 96
20260507064515 18 199 0.0 1.6 0.00 0.00 0.00 96
20260507064211 19 198 0.0 0.0 0.00 0.00 0.00 96
20260507063915 18 198 0.0 1.6 0.00 0.00 0.00 96
20260507063610 18 160 0.0 0.0 0.00 0.00 0.00 96
20260507063316 18 154 0.0 1.6 0.00 0.00 0.00 96
20260507063010 18 238 0.0 0.0 0.00 0.00 0.00 96
20260507062714 18 215 0.0 0.0 0.00 0.00 0.00 96
20260507062417 18 146 0.0 0.0 0.00 0.00 0.00 96
20260507062111 18 144 0.0 0.0 0.00 0.00 0.00 96
20260507061812 18 59 0.0 0.0 0.00 0.00 0.00 96
20260507061514 18 244 0.0 1.6 0.00 0.00 0.00 96
20260507061218 18 147 0.0 0.0 0.00 0.00 0.00 95
20260507060911 18 147 0.0 0.0 0.00 0.00 0.00 95
20260507060616 18 158 0.0 0.0 0.00 0.00 0.00 95
20260507060315 18 238 0.0 0.0 0.00 0.00 0.00 95
20260507060014 18 323 3.2 4.8 0.00 0.00 0.00 96
20260507060003 19 55 0.0 0.0 0.00 0.00 0.00 96
20260507055419 19 37 0.0 3.2 0.00 0.00 0.00 96
20260507055114 19 266 0.0 3.2 0.00 0.00 0.00 97
20260507054817 19 206 0.0 3.2 0.00 0.00 0.00 97
20260507054511 19 252 1.6 4.8 0.00 0.00 0.00 97
20260507054215 18 282 1.6 1.6 0.00 0.00 0.00 96
20260507053919 18 164 0.0 4.8 0.00 0.00 0.00 97
20260507053613 18 262 1.6 3.2 0.00 0.00 0.00 96
20260507053319 18 233 0.0 0.0 0.00 0.00 0.00 96
20260507053012 18 231 0.0 0.0 0.00 0.00 0.00 96
20260507052716 18 224 0.0 0.0 0.00 0.00 0.00 96
20260507052420 18 234 0.0 0.0 0.00 0.00 0.00 96
20260507052110 18 235 0.0 0.0 0.00 0.00 0.00 96
20260507051810 18 230 0.0 0.0 0.00 0.00 0.00 96
20260507051511 18 230 0.0 0.0 0.00 0.00 0.00 96
20260507051217 18 230 0.0 0.0 0.00 0.00 0.00 96
20260507050910 18 230 0.0 0.0 0.00 0.00 0.00 96
20260507050613 18 229 0.0 0.0 0.00 0.00 0.00 96
20260507050319 18 229 0.0 0.0 0.00 0.00 0.00 96
20260507050013 18 230 0.0 0.0 0.00 0.00 0.00 96
20260507050001 18 209 0.0 0.0 0.00 0.00 0.00 96
20260507045413 18 100 0.0 0.0 0.00 0.00 0.00 96
20260507045118 18 100 0.0 0.0 0.00 0.00 0.00 96
20260507044819 18 218 0.0 0.0 0.00 0.00 0.00 96
20260507044513 18 218 0.0 0.0 0.00 0.00 0.00 96
20260507044218 18 193 0.0 0.0 0.00 0.00 0.00 96
20260507043912 18 96 0.0 0.0 0.00 0.00 0.00 96
20260507043615 18 239 0.0 0.0 0.00 0.00 0.00 96
20260507043319 18 205 0.0 0.0 0.00 0.00 0.00 96
20260507043015 18 205 0.0 0.0 0.00 0.00 0.00 96
20260507042713 18 205 0.0 0.0 0.00 0.00 0.00 96
20260507042419 18 205 0.0 0.0 0.00 0.00 0.00 96
20260507042110 18 206 0.0 0.0 0.00 0.00 0.00 96
20260507041809 18 207 0.0 0.0 0.00 0.00 0.00 96
20260507041512 18 93 0.0 0.0 0.00 0.00 0.00 96
20260507041216 18 210 0.0 0.0 0.00 0.00 0.00 96
20260507040920 18 211 0.0 0.0 0.00 0.00 0.00 96
20260507040612 18 209 0.0 0.0 0.00 0.00 0.00 95
20260507040317 18 209 0.0 0.0 0.00 0.00 0.00 95
20260507040009 18 209 0.0 0.0 0.00 0.00 0.00 95
20260507035419 18 210 0.0 0.0 0.00 0.00 0.00 95
20260507035112 18 209 0.0 0.0 0.00 0.00 0.00 95
20260507034818 19 209 0.0 0.0 0.00 0.00 0.00 95
20260507034512 19 210 0.0 0.0 0.00 0.00 0.00 95
20260507034217 19 209 0.0 0.0 0.00 0.00 0.00 95
20260507033920 19 209 0.0 0.0 0.00 0.00 0.00 95
20260507033612 19 210 0.0 0.0 0.00 0.00 0.00 95
20260507033314 19 210 0.0 0.0 0.00 0.00 0.00 95
20260507033018 19 210 0.0 0.0 0.00 0.00 0.00 95
20260507032711 19 211 0.0 0.0 0.00 0.00 0.00 95
20260507032416 19 209 0.0 0.0 0.00 0.00 0.00 95
20260507032120 19 209 0.0 0.0 0.00 0.00 0.00 95
20260507031813 19 210 0.0 0.0 0.00 0.00 0.00 94
20260507031518 19 211 0.0 0.0 0.00 0.00 0.00 94
20260507031213 19 189 0.0 0.0 0.00 0.00 0.00 94
20260507030918 19 189 0.0 0.0 0.00 0.00 0.00 94
20260507030610 19 176 0.0 0.0 0.00 0.00 0.00 94
20260507030314 20 129 0.0 0.0 0.00 0.00 0.00 94
20260507030019 20 113 0.0 0.0 0.00 0.00 0.00 94
20260507030008 19 237 0.0 0.0 0.00 0.00 0.00 95
20260507025419 19 219 0.0 0.0 0.00 0.00 0.00 94
20260507025111 19 81 0.0 0.0 0.00 0.00 0.00 94
20260507024814 20 227 0.0 0.0 0.00 0.00 0.00 94
20260507024519 19 226 0.0 0.0 0.00 0.00 0.00 94
20260507024213 19 217 0.0 1.6 0.00 0.00 0.00 94
20260507023918 19 219 1.6 1.6 0.00 0.00 0.00 94
20260507023613 19 217 0.0 0.0 0.00 0.00 0.00 94
20260507023317 19 209 3.2 3.2 0.00 0.00 0.00 94
20260507023011 19 139 0.0 1.6 0.00 0.00 0.00 94
20260507022716 19 242 0.0 1.6 0.00 0.00 0.00 94
20260507022410 19 238 1.6 3.2 0.00 0.00 0.00 94
20260507022114 19 222 0.0 0.0 0.00 0.00 0.00 94
20260507021819 19 222 0.0 0.0 0.00 0.00 0.00 94
20260507021513 19 222 0.0 0.0 0.00 0.00 0.00 94
20260507021218 19 222 0.0 0.0 0.00 0.00 0.00 94
20260507020913 19 222 0.0 0.0 0.00 0.00 0.00 94
20260507020616 19 222 0.0 0.0 0.00 0.00 0.00 94
20260507020310 19 222 0.0 0.0 0.00 0.00 0.00 94
20260507020014 20 222 0.0 0.0 0.00 0.00 0.00 94
20260507020003 20 222 0.0 0.0 0.00 0.00 0.00 94
20260507015412 20 222 0.0 0.0 0.00 0.00 0.00 94
20260507015115 20 222 0.0 0.0 0.00 0.00 0.00 93
20260507014809 20 222 0.0 0.0 0.00 0.00 0.00 93
20260507014514 20 222 0.0 0.0 0.00 0.00 0.00 93
20260507014220 20 222 0.0 0.0 0.00 0.00 0.00 93
20260507013911 20 221 0.0 0.0 0.00 0.00 0.00 93
20260507013612 20 220 0.0 0.0 0.00 0.00 0.00 93
20260507013318 20 221 0.0 0.0 0.00 0.00 0.00 93
20260507013011 20 220 0.0 0.0 0.00 0.00 0.00 93
20260507012713 20 220 0.0 0.0 0.00 0.00 0.00 93
20260507012417 20 220 0.0 0.0 0.00 0.00 0.00 93
20260507012112 20 220 0.0 0.0 0.00 0.00 0.00 93
20260507011818 20 220 0.0 0.0 0.00 0.00 0.00 93
20260507011510 20 221 0.0 0.0 0.00 0.00 0.00 93
20260507011213 20 220 0.0 0.0 0.00 0.00 0.00 93
20260507010916 20 220 0.0 0.0 0.00 0.00 0.00 92
20260507010610 20 220 0.0 0.0 0.00 0.00 0.00 92
20260507010314 20 219 0.0 0.0 0.00 0.00 0.00 92
20260507010015 20 219 0.0 0.0 0.00 0.00 0.00 92
20260507010004 20 219 0.0 0.0 0.00 0.00 0.00 92
20260507005413 20 220 0.0 0.0 0.00 0.00 0.00 92
20260507005118 20 220 0.0 0.0 0.00 0.00 0.00 92
20260507004810 20 220 0.0 0.0 0.00 0.00 0.00 92
20260507004516 20 220 0.0 0.0 0.00 0.00 0.00 92
20260507004209 20 221 0.0 0.0 0.00 0.00 0.00 92
20260507003913 20 223 0.0 0.0 0.00 0.00 0.00 92
20260507003617 20 215 0.0 0.0 0.00 0.00 0.00 92
20260507003312 20 214 0.0 0.0 0.00 0.00 0.00 91
20260507003015 21 212 0.0 0.0 0.00 0.00 0.00 91
20260507002709 21 212 0.0 0.0 0.00 0.00 0.00 91
20260507002414 21 211 0.0 0.0 0.00 0.00 0.00 91
20260507002118 21 178 0.0 0.0 0.00 0.00 0.00 91
20260507001811 21 179 0.0 0.0 0.00 0.00 0.00 91
20260507001514 21 253 0.0 3.2 0.00 0.00 0.00 91
20260507001217 21 179 0.0 0.0 0.00 0.00 0.00 91
20260507000912 21 205 0.0 1.6 0.00 0.00 0.00 90
20260507000617 21 195 0.0 1.6 0.00 0.00 0.00 90
20260507000317 21 310 0.0 0.0 0.00 0.00 0.00 90
20260507000010 21 315 1.6 1.6 0.00 0.00 0.00 90
20260506235412 21 163 0.0 0.0 0.00 0.00 0.00 89
20260506235117 21 77 0.0 4.8 0.00 0.00 0.00 89
20260506234812 21 109 0.0 1.6 0.00 0.00 0.00 88
20260506234517 21 4 0.0 0.0 0.00 0.00 0.00 88
20260506234211 21 5 0.0 0.0 0.00 0.00 0.00 87
20260506233915 21 4 0.0 1.6 0.00 0.00 0.00 87
20260506233618 21 96 0.0 1.6 0.00 0.00 0.00 86
20260506233313 21 102 0.0 1.6 0.00 0.00 0.00 86
20260506233019 22 161 0.0 0.0 0.00 0.00 0.00 86
20260506232713 22 229 0.0 3.2 0.00 0.00 0.00 86
20260506232417 22 66 1.6 4.8 0.00 0.00 0.00 86
20260506232111 22 23 1.6 1.6 0.00 0.00 0.00 86
20260506231815 22 25 0.0 1.6 0.00 0.00 0.00 85
20260506231520 22 220 3.2 3.2 0.00 0.00 0.00 85
20260506231214 22 260 0.0 3.2 0.00 0.00 0.00 84
20260506230918 22 9 1.6 4.8 0.00 0.00 0.00 83
20260506230611 22 311 1.6 3.2 0.00 0.00 0.00 83
20260506230312 22 247 3.2 4.8 0.00 0.00 0.00 82
20260506230016 22 256 1.6 4.8 0.00 0.00 0.00 82
20260506230004 22 277 1.6 3.2 0.00 0.00 0.00 82
20260506225411 23 328 1.6 3.2 0.00 0.00 0.00 82
20260506225117 23 97 1.6 4.8 0.00 0.00 0.00 81
20260506224810 23 297 4.8 9.7 0.00 0.00 0.00 80
20260506224515 23 229 3.2 9.7 0.00 0.00 0.00 80
20260506224218 23 269 1.6 4.8 0.00 0.00 0.00 79
20260506223913 23 274 3.2 11.3 0.00 0.00 0.00 79
20260506223618 23 285 6.4 6.4 0.00 0.00 0.00 79
20260506223313 23 275 4.8 9.7 0.00 0.00 0.00 79
20260506223018 23 179 6.4 9.7 0.00 0.00 0.00 78
20260506222721 23 161 3.2 6.4 0.00 0.00 0.00 78
20260506222415 23 279 6.4 11.3 0.00 0.00 0.00 78
20260506222121 23 223 6.4 12.9 0.00 0.00 0.00 78
20260506221814 23 251 3.2 6.4 0.00 0.00 0.00 78
20260506221519 24 197 9.7 16.1 0.00 0.00 0.00 78
20260506221212 24 237 3.2 11.3 0.00 0.00 0.00 79
20260506220917 24 279 6.4 14.5 0.00 0.00 0.00 79
20260506220611 24 190 3.2 12.9 0.00 0.00 0.00 78
20260506220316 24 335 9.7 11.3 0.00 0.00 0.00 78
20260506220009 24 179 6.4 11.3 0.00 0.00 0.00 77
20260506215420 24 253 8.0 11.3 0.00 0.00 0.00 77
20260506215113 24 110 9.7 14.5 0.00 0.00 0.00 77
20260506214818 24 245 6.4 11.3 0.00 0.00 0.00 77
20260506214511 24 146 9.7 14.5 0.00 0.00 0.00 77
20260506214215 24 217 6.4 11.3 0.00 0.00 0.00 76
20260506213919 24 260 8.0 12.9 0.00 0.00 0.00 76
20260506213612 25 234 11.3 14.5 0.00 0.00 0.00 76
20260506213316 25 236 4.8 6.4 0.00 0.00 0.00 77
20260506213020 25 236 4.8 9.7 0.00 0.00 0.00 77
20260506212720 25 137 3.2 11.3 0.00 0.00 0.00 78
20260506212414 25 236 8.0 12.9 0.00 0.00 0.00 77
20260506212118 25 147 1.6 9.7 0.00 0.00 0.00 75
20260506211810 25 222 3.2 6.4 0.00 0.00 0.00 77
20260506211513 25 168 6.4 12.9 0.00 0.00 0.00 77
20260506211218 25 162 4.8 12.9 0.00 0.00 0.00 77
20260506210913 25 212 6.4 11.3 0.00 0.00 0.00 75
20260506210617 25 199 6.4 11.3 0.00 0.00 0.00 75
20260506210311 25 251 6.4 6.4 0.00 0.00 0.00 76
20260506210015 25 262 3.2 11.3 0.00 0.00 0.00 75
20260506210004 25 280 3.2 9.7 0.00 0.00 0.00 75
20260506205414 25 149 3.2 6.4 0.00 0.00 0.00 74
20260506205119 25 256 3.2 14.5 0.00 0.00 0.00 74
20260506204813 25 279 6.4 9.7 0.00 0.00 0.00 74
20260506204517 26 265 9.7 11.3 0.00 0.00 0.00 73
20260506204210 25 97 1.6 3.2 0.00 0.00 0.00 74
20260506203914 26 272 4.8 11.3 0.00 0.00 0.00 72
20260506203620 26 119 1.6 11.3 0.00 0.00 0.00 71
20260506203313 26 229 3.2 12.9 0.00 0.00 0.00 72
20260506203018 26 164 4.8 4.8 0.00 0.00 0.00 71
20260506202711 26 58 3.2 6.4 0.00 0.00 0.00 72
20260506202416 26 48 3.2 9.7 0.00 0.00 0.00 71
20260506202110 26 206 1.6 6.4 0.00 0.00 0.00 71
20260506201815 26 264 4.8 9.7 0.00 0.00 0.00 71
20260506201520 26 202 6.4 11.3 0.00 0.00 0.00 70
20260506201214 26 253 1.6 6.4 0.00 0.00 0.00 71
20260506200919 27 217 6.4 6.4 0.00 0.00 0.00 70
20260506200613 27 82 0.0 6.4 0.00 0.00 0.00 69
20260506200319 26 325 0.0 3.2 0.00 0.00 0.00 70
20260506200012 26 117 3.2 6.4 0.00 0.00 0.00 68
20260506200001 26 225 3.2 4.8 0.00 0.00 0.00 66
20260506195411 26 259 8.0 11.3 0.00 0.00 0.00 67
20260506195114 26 262 0.0 4.8 0.00 0.00 0.00 66
20260506194816 25 57 1.6 1.6 0.00 0.00 0.00 67
20260506194510 25 342 1.6 3.2 0.00 0.00 0.00 69
20260506194214 26 217 3.2 11.3 0.00 0.00 0.00 68
20260506193918 27 279 1.6 3.2 0.00 0.00 0.00 66
20260506193613 27 109 0.0 9.7 0.00 0.00 0.00 64
20260506193318 27 260 4.8 6.4 0.00 0.00 0.00 62
20260506193012 27 114 1.6 4.8 0.00 0.00 0.00 63
20260506192718 26 254 1.6 1.6 0.00 0.00 0.00 66
20260506192411 26 270 3.2 6.4 0.00 0.00 0.00 64
20260506192114 25 262 0.0 0.0 0.00 0.00 0.00 69
20260506191819 26 240 3.2 4.8 0.00 0.00 0.00 66
20260506191512 27 234 1.6 6.4 0.00 0.00 0.00 68
20260506191218 27 286 4.8 9.7 0.00 0.00 0.00 68
20260506190911 26 131 3.2 3.2 0.00 0.00 0.00 68
20260506190615 26 239 3.2 9.7 0.00 0.00 0.00 69
20260506190309 26 191 3.2 9.7 0.00 0.00 0.00 70